CW5361 Weather Reports


time (UTC)temp
F
wind
direction
speed
knots
gust
knots
rain 1hr
in
rain 24hr
in
rain mn
in
humidity
%
barometer
mb
20260506110411 58 165 6.1 11.3 0.00 0.57 0.00 69 1005.4
20260506105411 59 164 7.0 10.4 0.00 0.57 0.00 74 1005.3
20260506104411 58 184 5.2 11.3 0.00 0.57 0.00 74 1005.4
20260506103411 57 226 3.5 8.7 0.00 0.57 0.00 75 1005.5
20260506101410 57 214 4.3 10.4 0.00 0.57 0.00 76 1005.4
20260506095411 55 190 3.5 5.2 0.00 0.57 0.00 79 1005.6
20260506094410 55 184 3.5 9.6 0.00 0.57 0.00 82 1005.7
20260506093410 54 195 5.2 10.4 0.00 0.57 0.00 82 1005.8
20260506092411 55 193 3.5 13.9 0.00 0.57 0.00 81 1005.7
20260506091410 56 144 3.5 7.0 0.00 0.57 0.00 80 1005.6
20260506085410 56 156 6.1 11.3 0.00 0.57 0.00 82 1005.5
20260506084410 56 167 4.3 10.4 0.00 0.57 0.00 85 1005.4
20260506083410 54 226 5.2 12.2 0.00 0.57 0.00 90 1005.4
20260506082410 53 210 4.3 8.7 0.00 0.57 0.00 89 1005.6
20260506081410 53 224 6.1 10.4 0.00 0.57 0.00 88 1005.6
20260506080410 54 212 3.5 7.8 0.00 0.57 0.00 89 1005.2
20260506072410 53 253 2.6 10.4 0.00 0.57 0.00 90 1004.9
20260506071410 54 210 4.3 8.7 0.00 0.57 0.00 91 1004.9
20260506070409 54 223 3.5 8.7 0.00 0.57 0.00 92 1004.9
20260506061409 51 262 8.7 12.2 0.00 0.57 0.00 94 1005.3
20260506060409 51 264 7.0 11.3 0.00 0.57 0.00 94 1005.2
20260506051409 51 236 3.5 8.7 0.00 0.57 0.00 96 1005.3
20260506050409 51 191 3.5 10.4 0.00 0.57 0.00 96 1005.3
20260506044409 51 229 3.5 14.8 0.00 0.57 0.00 97 1004.6
20260506043416 51 264 6.1 12.2 0.00 0.57 0.00 97 1004.5
20260506041408 51 247 4.3 11.3 0.00 0.57 0.00 97 1004.4
20260506040416 51 224 6.1 12.2 0.00 0.57 0.00 97 1004.3
20260506035408 51 234 3.5 9.6 0.00 0.58 0.00 97 1004.1
20260506034408 51 212 2.6 11.3 0.00 0.58 0.00 97 1004.0
20260506033410 51 216 2.6 8.7 0.00 0.58 0.00 97 1004.1
20260506032408 51 207 5.2 10.4 0.00 0.58 0.00 97 1004.0
20260506031408 51 198 2.6 7.8 0.00 0.58 0.00 97 1004.1
20260506030411 51 164 4.3 7.8 0.00 0.58 0.00 97 1004.2
20260506025408 51 174 2.6 10.4 0.00 0.59 0.00 97 1004.2
20260506024408 51 197 4.3 10.4 0.00 0.59 0.00 97 1004.2
20260506023411 51 161 1.7 7.8 0.00 0.59 0.00 97 1004.2
20260506021408 51 233 5.2 9.6 0.00 0.59 0.00 98 1004.3
20260506020409 51 161 2.6 4.3 0.00 0.59 0.00 98 1004.4
20260506015409 51 213 7.8 11.3 0.00 0.59 0.00 98 1004.2
20260506014408 51 229 4.3 8.7 0.00 0.59 0.00 98 1004.2
20260506013411 51 176 2.6 9.6 0.00 0.59 0.00 98 1004.2
20260506012408 51 197 2.6 8.7 0.00 0.59 0.00 98 1004.3
20260506011408 51 209 2.6 6.1 0.00 0.59 0.00 98 1004.3
20260506010408 51 200 2.6 6.1 0.00 0.59 0.00 98 1004.3
20260506005408 51 218 2.6 8.7 0.00 0.59 0.00 98 1004.1
20260506004408 51 226 3.5 7.8 0.00 0.59 0.00 98 1004.1
20260506003408 51 215 3.5 8.7 0.00 0.59 0.00 98 1004.2
20260506002408 51 216 2.6 7.8 0.00 0.59 0.00 98 1004.4
20260506000408 51 220 3.5 9.6 0.00 0.59 0.00 98 1004.5
20260505235408 51 249 7.0 12.2 0.00 0.59 0.00 98 1004.4
20260505234408 51 252 5.2 11.3 0.00 0.59 0.00 98 1004.6
20260505233408 51 219 2.6 6.1 0.00 0.59 0.00 98 1004.6
20260505232408 51 209 3.5 6.1 0.00 0.59 0.00 98 1004.5
20260505231409 51 209 2.6 6.1 0.00 0.59 0.00 98 1004.4
20260505230408 51 236 2.6 7.8 0.00 0.59 0.00 98 1004.4
20260505225408 50 237 2.6 12.2 0.00 0.59 0.00 98 1004.8
20260505224408 51 230 5.2 10.4 0.00 0.59 0.00 98 1004.6
20260505223413 50 210 2.6 7.8 0.00 0.59 0.00 98 1004.6
20260505222413 51 257 8.7 12.2 0.00 0.59 0.00 98 1004.4
20260505221413 64 23 10.4 15.6 0.00 0.02 0.00 60 1005.1
20260505220412 51 230 2.6 6.1 0.00 0.59 0.00 98 1004.5
20260505215412 51 177 2.6 4.3 0.00 0.59 0.59 98 1004.9
20260505214412 51 196 2.6 5.2 0.00 0.59 0.59 98 1004.9
20260505210412 50 181 0.9 2.6 0.00 0.59 0.59 97 1005.4
20260505205412 50 172 1.7 3.5 0.00 0.59 0.59 97 1005.5
20260505204412 50 159 2.6 4.3 0.00 0.59 0.59 97 1005.5
20260505203412 50 158 1.7 2.6 0.00 0.59 0.59 97 1005.5
20260505200412 51 158 3.5 5.2 0.02 0.59 0.59 96 1005.1
20260505195412 51 125 2.6 3.5 0.05 0.59 0.59 96 1005.1
20260505194412 50 298 0.0 0.0 0.10 0.59 0.59 96 1004.8
20260505193412 50 298 0.9 2.6 0.13 0.59 0.59 96 1004.9
20260505192412 51 298 0.9 2.6 0.16 0.58 0.58 96 1005.1
20260505191412 51 298 2.6 3.5 0.19 0.58 0.58 96 1005.3
20260505185412 51 276 5.2 8.7 0.38 0.54 0.54 95 1006.0
20260505184412 51 276 4.3 8.7 0.47 0.49 0.49 95 1006.2
20260505182412 51 254 4.3 11.3 0.41 0.43 0.43 94 1006.3
20260505181413 50 212 8.7 13.0 0.38 0.39 0.39 92 1006.6
20260505180412 51 163 6.1 13.0 0.28 0.29 0.29 89 1006.6
20260505175412 54 244 7.8 19.1 0.15 0.17 0.17 76 1006.6
20260505174412 58 166 4.3 7.8 0.00 0.02 0.02 77 1005.7
20260505173411 58 351 5.2 13.0 0.00 0.02 0.02 76 1004.4
20260505172412 59 359 9.6 13.0 0.00 0.02 0.02 75 1004.4
20260505170411 59 41 10.4 13.9 0.00 0.02 0.02 73 1004.5
20260505165411 59 360 8.7 15.6 0.00 0.02 0.02 72 1004.4
20260505164411 60 28 9.6 14.8 0.00 0.02 0.02 71 1004.4
20260505163411 60 49 8.7 15.6 0.00 0.02 0.02 71 1004.5
20260505162411 60 38 7.0 13.9 0.00 0.02 0.02 70 1004.7
20260505161411 60 32 10.4 14.8 0.00 0.02 0.02 69 1004.8
20260505160411 61 29 10.4 16.5 0.00 0.02 0.02 67 1004.8
20260505152411 61 4 10.4 16.5 0.00 0.02 0.02 66 1005.3
20260505151411 62 36 10.4 16.5 0.00 0.02 0.02 65 1005.1
20260505150411 62 54 9.6 13.9 0.00 0.02 0.02 66 1005.2
20260505140411 64 42 7.0 13.9 0.00 0.02 0.02 59 1005.2
20260505124410 68 359 4.3 11.3 0.00 0.02 0.02 54 1005.4
20260505123410 67 3 7.0 13.0 0.00 0.02 0.02 54 1005.6
20260505122410 68 37 7.8 11.3 0.00 0.02 0.02 52 1005.6
20260505120410 69 8 6.1 13.0 0.00 0.02 0.02 49 1005.8
20260505115410 68 11 8.7 13.0 0.00 0.02 0.02 50 1005.9
20260505114410 67 18 4.3 13.9 0.00 0.02 0.02 48 1005.9
20260505113410 68 46 8.7 12.2 0.00 0.02 0.02 49 1006.0